Temp
90 89 88 87 87 86 86 85 85 87 87 86 85 85 86 87 87 85 84 86 86 86 88 88 87 87 90 93 93 93 90 89 85 90 95 96 91 90 93 95 94 95 95
91 89 88 88 87 87 86 86 86 85 87 85 85 85 86 87 87 86 85 88 85 85 87 86 87 89 85 87 90 86 88 88 84 81 88 91 90 91 90 89 92 98 98
91 91 89 89 88 88 87 87 86 85 85 87 86 85 85 87 86 86 86 85 85 86 87 86 87 86 85 89 88 86 90 88 86 84 85 92 93 94 91 90 90 91 95
91 90 87 87 88 89 88 86 86 85 85 85 86 86 86 86 86 86 87 85 87 89 89 88 88 87 86 86 87 86 87 86 86 86 87 90 91 92 91 89 89 93 93
87 86 85 86 87 87 86 85 86 85 85 86 85 86 87 87 91 86 87 87 86 86 88 88 88 85 79 80 87 86 85 83 88 88 88 89 90 89 82 82 77 88 89
85 85 85 84 84 84 84 83 83 84 84 84 85 85 85 90 78 74 80 85 86 86 85 86 87 79 78 72 71 71 76 80 78 76 85 82 81 79 83 80 79 75 76
83 84 84 83 82 83 83 83 82 82 84 83 84 85 85 86 71 69 73 87 86 87 85 85 86 92 80 87 73 69 69 68 69 79 77 80 78 79 78 76 76 75 77
83 83 83 83 82 82 82 82 82 83 82 83 83 84 85 86 69 67 69 83 85 86 85 80 81 82 81 81 83 82 84 83 79 81 77 78 78 79 77 76 74 73 77
83 82 83 82 81 82 81 81 83 83 83 83 84 84 83 85 66 65 69 84 85 85 86 83 82 82 72 66 79 81 81 80 66 65 65 64 63 64 67 77 79 76 74
80 82 83 82 81 81 81 81 82 82 83 86 84 85 79 84 66 63 68 86 86 88 86 83 65 74 62 62 76 80 76 77 79 78 75 69 70 71 65 74 77 74 70
81 83 83 82 81 82 81 81 81 81 84 82 82 81 84 83 82 60 60 83 88 84 82 77 81 59 58 58 60 79 74 78 72 81 81 81 80 80 80 75 72 71 67
77 80 81 82 83 85 81 82 81 82 79 79 81 84 87 85 66 60 59 62 69 80 80 84 77 55 54 56 64 59 62 67 83 83 83 81 81 78 76 77 72 74 74
77 75 81 82 83 83 82 80 82 77 69 66 65 71 76 73 72 58 57 58 60 71 80 71 56 52 53 60 58 58 58 79 83 82 80 80 80 78 74 74 73 75 74
76 77 76 80 77 80 85 80 85 83 70 66 64 66 73 72 76 70 67 66 62 73 63 64 64 64 59 67 66 66 79 83 83 83 81 81 80 78 79 82 81 81 81
78 80 75 75 72 74 74 79 80 83 80 80 76 78 73 79 80 72 71 77 80 73 68 65 66 69 71 76 77 79 81 79 80 81 81 80 80 80 80 81 81 81 78
79 80 81 69 66 64 67 68 56 56 53 54 58 73 80 62 55 52 51 50 51 54 71 69 69 75 77 78 78 78 79 76 81 81 80 80 79 79 80 78 79 78 78
78 79 78 67 67 70 71 68 70 60 49 48 47 54 54 59 50 49 46 47 49 56 78 72 73 77 78 80 81 81 81 81 80 80 80 80 80 80 76 79 78 78 79
78 64 80 75 71 76 73 71 72 65 61 67 54 51 47 47 47 46 46 52 58 62 81 79 79 80 81 81 82 83 83 80 80 80 79 80 79 78 78 78 79 78 79
78 82 83 83 81 76 79 75 73 74 76 75 63 54 47 43 44 44 49 76 70 75 81 84 83 84 83 83 83 82 79 79 79 78 78 79 79 74 77 79 81 62 67
80 70 69 82 80 79 78 76 74 73 77 81 73 73 56 56 61 60 70 80 78 80 82 83 84 84 82 78 76 76 76 75 77 80 81 81 80 80 78 77 77 80 79
82 84 73 81 78 77 76 77 75 76 79 83 81 78 55 73 75 73 74 79 77 80 79 81 80 78 77 76 76 78 77 77 77 80 82 81 81 80 80 80 80 80 81
80 82 83 82 82 76 76 80 78 81 83 85 85 68 51 75 81 78 78 79 81 82 81 78 82 84 83 76 78 78 78 76 82 83 82 82 82 81 81 81 80 80 80
80 82 83 78 72 72 77 77 79 80 83 84 83 76 73 77 83 81 79 80 80 81 83 82 83 82 81 80 80 79 79 82 85 85 83 83 83 82 82 81 81 81 80
75 78 82 80 77 76 77 77 72 63 71 81 82 81 77 79 85 85 85 84 84 84 84 84 83 81 80 81 82 82 82 87 85 87 85 84 84 78 82 82 83 82 82
75 74 77 78 78 78 78 77 76 79 72 80 84 85 82 82 83 84 84 85 84 84 84 85 86 85 84 82 82 82 49 47 75 56 85 83 83 82 83 84 83 83 82
79 78 77 76 72 77 79 77 75 78 76 76 85 85 84 84 84 85 85 85 85 85 85 86 86 85 85 84 66 42 35 42 61 44 77 84 83 83 83 82 81 82 81
MSLP
1008.89 1009.62 1010.44 1011.22 1011.79 1012.55 1012.94 1013.42 1013.80 1014.02 1014.41 1014.81 1015.17 1015.39 1015.72 1016.00 1016.30 1016.53 1016.78 1016.71 1017.09 1017.14 1017.20 1017.15 1017.42 1017.64 1017.37 1016.87 1016.72 1016.63 1016.93 1017.05 1016.63 1015.99 1015.41 1015.45 1016.17 1016.34 1015.95 1015.83 1015.80 1015.61 1015.33
1007.87 1008.89 1009.71 1010.61 1011.29 1011.79 1012.31 1012.77 1013.24 1013.62 1013.98 1014.46 1014.74 1014.95 1015.12 1015.37 1015.67 1015.86 1016.06 1016.06 1016.46 1016.61 1016.70 1016.91 1016.86 1017.06 1017.15 1017.17 1016.89 1017.00 1016.68 1016.68 1016.90 1016.32 1015.94 1015.74 1015.67 1015.66 1015.74 1015.80 1015.50 1014.91 1014.63
1007.38 1008.08 1008.77 1009.46 1010.21 1010.68 1011.42 1012.00 1012.59 1013.03 1013.45 1013.74 1014.12 1014.42 1014.65 1014.82 1015.08 1015.37 1015.47 1015.58 1015.77 1015.94 1015.98 1016.18 1016.26 1016.56 1016.65 1016.42 1016.40 1016.53 1016.05 1016.34 1016.57 1016.43 1015.76 1015.26 1014.99 1014.97 1015.06 1015.17 1015.15 1014.68 1014.56
1007.04 1007.53 1008.09 1008.62 1009.10 1009.71 1010.47 1011.37 1011.86 1012.40 1012.74 1013.07 1013.39 1013.74 1014.14 1014.53 1014.76 1014.84 1014.97 1015.16 1015.08 1015.11 1015.29 1015.44 1015.57 1015.65 1015.81 1016.07 1016.12 1016.03 1015.82 1016.02 1015.78 1015.77 1015.16 1014.59 1014.25 1014.15 1014.38 1014.51 1014.27 1013.92 1013.51
1006.83 1007.27 1007.64 1008.26 1008.79 1009.33 1009.86 1010.51 1011.25 1011.91 1012.27 1012.60 1012.98 1013.23 1013.53 1013.74 1013.84 1014.31 1014.52 1014.49 1014.49 1014.56 1014.70 1014.93 1014.96 1015.02 1015.25 1015.45 1015.46 1015.31 1015.35 1015.57 1015.17 1014.81 1014.29 1013.98 1013.71 1013.64 1014.17 1014.66 1014.74 1014.11 1013.74
1006.58 1007.00 1007.55 1008.04 1008.38 1008.72 1009.15 1009.86 1010.37 1010.92 1011.43 1011.92 1012.32 1012.73 1013.05 1013.10 1013.04 1013.55 1014.03 1014.16 1014.21 1014.19 1014.30 1014.49 1014.53 1014.61 1014.77 1015.01 1015.29 1015.41 1015.47 1015.51 1015.53 1015.41 1014.65 1014.53 1014.61 1014.85 1014.87 1014.90 1014.87 1014.71 1014.08
1006.36 1006.70 1006.98 1007.54 1007.70 1007.99 1008.56 1009.12 1009.46 1009.84 1010.48 1011.06 1011.53 1011.99 1012.36 1012.70 1012.92 1013.30 1013.69 1013.92 1013.84 1013.74 1013.94 1014.22 1014.29 1014.04 1014.48 1014.31 1014.54 1014.85 1015.13 1015.22 1015.43 1015.27 1015.23 1014.88 1014.99 1015.06 1015.18 1015.07 1014.92 1014.83 1014.27
1005.83 1006.27 1006.60 1007.02 1007.51 1007.79 1007.99 1008.34 1008.64 1009.32 1009.71 1010.21 1010.77 1011.24 1011.69 1012.04 1012.50 1012.90 1013.24 1013.49 1013.38 1013.32 1013.69 1014.26 1014.35 1014.42 1014.71 1014.45 1014.20 1014.24 1014.21 1014.54 1014.88 1014.95 1015.18 1015.26 1015.50 1015.30 1015.33 1015.21 1015.12 1014.90 1014.28
1005.32 1005.68 1006.08 1006.45 1006.95 1007.18 1007.11 1007.20 1007.18 1008.00 1008.74 1009.27 1009.90 1010.52 1010.85 1011.17 1011.74 1012.36 1012.92 1012.89 1012.62 1012.57 1012.86 1013.47 1013.67 1013.95 1014.22 1014.13 1013.90 1013.90 1013.85 1014.19 1015.08 1015.17 1015.50 1015.69 1015.99 1016.13 1015.96 1015.20 1014.25 1014.18 1013.79
1005.22 1005.31 1005.56 1005.78 1006.25 1006.37 1006.75 1007.15 1007.62 1007.80 1007.70 1008.57 1009.01 1009.72 1010.35 1010.54 1011.05 1011.63 1012.25 1012.05 1011.49 1011.48 1011.94 1012.74 1013.49 1013.63 1013.89 1013.87 1013.93 1013.60 1013.55 1013.93 1014.21 1014.57 1015.23 1015.50 1015.32 1015.25 1015.69 1015.15 1014.78 1014.38 1014.58
1005.13 1004.96 1004.95 1005.10 1005.40 1005.64 1006.43 1006.97 1007.30 1007.59 1007.47 1007.90 1008.35 1008.76 1009.37 1009.76 1010.20 1010.80 1011.27 1011.42 1010.76 1011.09 1011.50 1012.30 1012.84 1013.43 1013.44 1013.67 1013.79 1013.33 1013.65 1013.69 1014.04 1013.91 1014.02 1014.30 1014.45 1014.52 1014.68 1015.07 1015.46 1015.46 1015.27
1005.32 1004.71 1004.43 1004.41 1004.52 1004.65 1005.48 1006.26 1006.63 1006.88 1007.37 1007.57 1008.08 1008.19 1008.20 1008.91 1009.42 1010.24 1010.68 1011.00 1010.81 1011.00 1011.08 1011.54 1012.56 1013.34 1013.56 1013.74 1013.80 1013.87 1013.76 1013.73 1013.27 1013.10 1013.16 1013.48 1013.75 1014.43 1014.95 1014.99 1015.44 1015.33 1015.26
1005.26 1004.78 1003.86 1003.61 1003.59 1003.76 1004.42 1005.55 1005.99 1006.64 1007.01 1007.59 1008.03 1008.74 1008.33 1008.94 1009.57 1010.10 1010.44 1010.78 1011.11 1011.31 1011.05 1011.58 1012.75 1013.49 1013.75 1013.90 1013.87 1014.10 1013.88 1013.43 1012.75 1012.65 1012.96 1013.36 1014.01 1014.57 1015.03 1015.11 1015.15 1014.94 1014.90
1004.89 1004.28 1003.37 1002.91 1003.67 1003.85 1003.10 1004.13 1004.74 1005.35 1006.65 1007.25 1007.61 1007.03 1008.66 1008.59 1008.92 1009.89 1010.52 1010.80 1011.02 1011.13 1011.63 1012.57 1012.98 1013.22 1013.44 1013.21 1013.94 1014.05 1013.27 1012.65 1012.43 1012.39 1012.87 1013.32 1013.83 1014.27 1013.89 1013.88 1013.57 1013.67 1013.44
1004.41 1003.44 1003.35 1003.65 1002.15 1003.27 1004.72 1003.64 1004.17 1004.20 1004.95 1005.85 1006.89 1007.02 1007.55 1007.61 1007.73 1008.44 1009.22 1009.80 1009.98 1010.51 1011.94 1012.47 1012.77 1012.71 1012.78 1012.71 1012.67 1012.71 1012.66 1012.93 1012.65 1012.71 1012.78 1012.98 1013.10 1013.35 1013.41 1013.62 1013.43 1013.29 1013.20
1003.82 1002.98 1002.43 1003.81 1004.01 1004.19 1003.85 1004.07 1005.03 1005.35 1005.44 1005.47 1005.72 1006.02 1006.52 1007.02 1007.48 1008.47 1008.86 1009.07 1009.63 1010.58 1011.37 1011.59 1011.89 1011.63 1011.63 1011.76 1011.85 1012.06 1012.22 1012.45 1012.15 1012.36 1012.34 1012.52 1012.69 1012.87 1012.92 1013.45 1013.45 1013.28 1012.86
1003.46 1003.01 1002.39 1003.26 1003.64 1003.61 1003.00 1003.20 1004.60 1006.33 1006.79 1006.21 1007.23 1005.13 1005.28 1006.40 1007.17 1008.17 1009.03 1009.68 1010.01 1010.44 1010.03 1010.91 1010.90 1010.56 1010.71 1010.97 1011.05 1011.19 1011.37 1011.78 1012.05 1012.20 1012.20 1012.32 1012.49 1012.61 1012.99 1012.61 1012.70 1012.66 1012.42
1003.13 1002.86 1002.67 1003.13 1003.53 1003.04 1003.47 1003.68 1003.75 1004.45 1005.47 1006.10 1007.49 1007.91 1006.78 1006.62 1007.40 1008.17 1009.10 1010.21 1010.75 1010.47 1009.01 1009.08 1009.38 1009.55 1009.69 1009.90 1010.08 1010.28 1010.64 1011.23 1011.75 1011.81 1011.87 1011.92 1012.13 1012.32 1012.29 1012.20 1012.08 1012.06 1011.95
1002.50 1001.91 1001.73 1002.04 1002.41 1002.85 1003.22 1003.24 1003.52 1003.98 1004.04 1005.35 1007.18 1007.96 1008.32 1008.01 1008.19 1008.60 1008.70 1008.29 1009.15 1009.18 1008.64 1008.08 1008.38 1008.63 1008.95 1009.19 1009.55 1009.94 1010.62 1011.00 1011.34 1011.52 1011.73 1011.68 1011.78 1012.34 1012.05 1011.76 1011.39 1011.88 1012.23
1001.57 1001.47 1001.53 1001.23 1001.76 1002.11 1002.46 1002.32 1002.72 1003.46 1003.58 1004.26 1005.76 1006.38 1007.73 1008.26 1008.57 1009.02 1008.46 1007.40 1007.79 1007.96 1007.89 1007.75 1007.76 1008.04 1008.27 1008.97 1009.68 1010.23 1010.61 1010.91 1011.10 1011.11 1010.92 1010.92 1011.24 1011.39 1011.52 1011.76 1011.77 1011.26 1011.41
1000.49 1000.20 1000.67 1000.86 1001.05 1001.31 1001.70 1001.75 1002.31 1002.67 1002.88 1002.89 1003.89 1004.69 1005.97 1006.33 1006.76 1007.29 1007.57 1007.03 1007.20 1007.11 1007.33 1007.67 1007.85 1008.44 1008.75 1009.05 1009.38 1009.75 1010.02 1010.21 1010.42 1010.38 1010.35 1010.67 1010.88 1010.78 1011.06 1011.02 1011.04 1011.23 1010.99
1000.03 999.56 999.50 999.80 1000.01 1000.64 1000.68 1000.77 1001.33 1001.36 1001.54 1001.57 1002.16 1004.31 1005.38 1005.59 1005.35 1005.77 1006.16 1006.40 1006.51 1006.60 1007.06 1007.67 1007.47 1007.38 1008.05 1008.73 1009.02 1009.21 1009.34 1009.49 1009.21 1009.33 1009.76 1010.07 1010.32 1010.41 1010.43 1010.37 1010.41 1010.46 1010.56
999.30 999.00 998.97 999.67 1000.35 1000.09 1000.48 1000.75 1000.75 1000.77 1000.82 1000.79 1001.22 1002.94 1004.27 1004.40 1003.79 1004.40 1005.11 1005.65 1006.21 1006.49 1006.69 1006.87 1007.13 1007.11 1007.52 1008.02 1008.30 1008.48 1008.58 1008.58 1008.55 1008.99 1009.13 1009.31 1009.35 1009.47 1009.55 1009.64 1009.71 1009.79 1009.87
998.86 998.82 998.39 998.77 999.57 1000.02 1000.05 1000.23 1000.89 1001.09 1000.95 1000.41 1000.67 1001.39 1002.90 1003.29 1002.68 1002.99 1003.73 1004.54 1005.06 1005.39 1005.82 1006.10 1006.40 1006.99 1007.19 1007.51 1007.55 1007.88 1007.96 1007.72 1008.01 1008.10 1008.70 1008.74 1008.71 1008.94 1009.19 1008.97 1008.82 1008.82 1008.99
998.27 998.51 998.36 998.40 998.66 999.02 999.19 999.74 999.92 999.97 1000.28 1000.04 999.73 1000.27 1001.70 1002.28 1002.50 1002.92 1003.67 1004.06 1004.47 1004.79 1005.11 1005.51 1005.70 1005.90 1006.53 1007.27 1007.13 1007.27 1008.28 1008.10 1008.15 1008.54 1008.13 1008.41 1008.37 1008.25 1008.14 1007.82 1007.99 1008.22 1008.37
997.33 997.65 998.02 998.37 998.81 998.71 998.66 999.03 999.43 999.45 999.60 999.80 998.98 999.70 1000.79 1001.37 1001.89 1002.38 1002.90 1003.32 1003.69 1004.07 1004.32 1005.02 1005.30 1005.65 1005.77 1006.39 1008.24 1008.79 1009.00 1008.97 1008.81 1009.27 1008.86 1008.27 1008.06 1007.88 1007.95 1007.93 1007.85 1007.96 1007.91
Wind_Speed
18 17 17 16 16 15 13 14 13 14 14 13 13 13 12 13 12 11 9 8 10 9 9 8 8 8 8 7 6 6 6 8 9 9 7 4 5 8 9 7 7 8 7
18 17 17 16 15 15 15 15 15 15 15 14 14 14 13 13 12 13 13 12 13 11 10 9 10 7 9 8 7 8 8 6 8 10 9 9 8 8 9 9 9 10 10
16 18 17 17 17 16 16 15 15 15 15 15 14 14 14 13 13 13 13 12 10 11 11 10 11 10 11 9 8 8 7 8 7 9 10 9 9 7 8 9 10 10 10
15 16 17 18 18 16 15 15 15 15 16 15 15 14 13 12 12 13 13 13 13 12 11 11 11 11 11 10 9 10 10 9 9 10 11 10 9 8 7 9 10 9 9
15 16 15 16 15 15 14 14 14 14 14 15 14 14 14 13 12 14 14 13 13 12 11 11 12 11 9 9 8 9 9 9 10 10 11 10 10 8 5 4 7 10 11
15 15 15 14 14 14 15 15 15 15 15 15 15 15 15 12 11 10 10 11 12 11 11 13 13 10 11 12 13 13 12 10 9 7 11 11 11 6 8 7 8 7 9
13 14 15 15 16 16 16 15 15 16 14 15 15 15 15 15 7 9 11 13 11 12 13 10 9 10 9 11 13 13 12 11 13 11 11 12 11 9 7 9 8 7 10
12 14 14 15 16 15 16 17 16 14 14 14 14 14 14 13 10 13 14 14 14 14 12 10 9 9 9 9 9 10 11 9 10 8 9 9 7 6 5 6 8 9 10
12 12 14 15 16 17 18 17 17 16 14 13 14 15 15 14 13 15 13 14 14 15 13 12 11 10 5 5 7 10 11 6 5 6 6 7 3 2 4 6 6 6 8
8 11 14 13 15 17 15 14 12 11 11 10 12 14 15 15 13 16 16 12 14 12 12 12 3 8 6 6 7 9 9 8 7 8 8 8 6 6 3 4 5 6 5
8 9 13 12 15 17 13 10 11 11 11 12 11 9 13 15 13 16 18 13 12 8 9 5 7 5 6 6 8 5 4 6 4 5 4 4 4 4 3 3 3 2 2
8 10 11 14 13 12 13 10 12 12 8 6 9 11 12 13 9 14 17 20 4 9 8 7 6 6 5 4 5 6 7 4 6 6 5 5 4 3 4 4 4 3 3
10 10 11 13 14 14 13 13 11 10 6 7 5 9 10 3 4 6 11 12 10 6 5 6 12 8 8 6 7 5 7 7 6 6 5 4 3 3 4 4 4 4 4
9 10 11 13 10 12 12 10 13 13 8 5 9 15 10 6 7 6 6 6 7 6 11 9 9 6 3 7 7 7 8 6 6 5 6 5 5 7 6 3 4 4 3
9 10 8 7 8 8 7 7 10 10 9 11 13 12 9 10 11 12 13 11 10 10 9 8 7 7 7 7 8 8 7 6 6 5 6 6 5 5 4 4 3 4 4
10 10 6 1 4 5 6 6 4 2 10 11 8 10 9 2 14 12 11 11 17 20 8 8 7 9 8 9 9 9 8 8 7 6 6 6 6 6 5 5 4 5 5
11 10 4 3 5 7 6 7 9 2 5 11 19 10 15 14 17 17 12 13 18 14 9 8 9 9 9 10 10 10 9 8 5 6 7 7 6 6 3 7 6 6 6
13 11 10 7 7 8 8 8 6 8 4 3 4 11 5 15 15 17 17 13 7 8 9 10 10 11 10 10 10 9 8 7 8 7 7 8 7 7 7 7 6 6 6
12 11 10 9 10 10 10 8 4 5 5 8 5 1 5 10 11 14 19 11 11 10 10 9 9 10 9 9 9 7 6 8 7 7 8 8 8 6 9 8 7 2 3
13 15 10 9 9 11 10 9 8 7 7 8 8 9 7 6 9 8 10 10 10 10 10 9 9 9 9 5 5 6 8 7 9 8 8 7 7 7 7 6 8 7 6
11 11 11 11 9 9 9 10 10 11 11 12 9 11 15 12 12 12 11 10 9 8 7 9 6 5 5 5 5 8 8 7 8 9 8 7 6 6 6 6 6 8 6
11 10 9 9 9 9 7 8 10 11 12 13 10 11 20 12 12 11 12 11 10 10 9 8 10 11 11 7 8 8 8 8 11 7 7 7 7 6 5 5 6 6 7
12 11 10 6 7 7 9 9 9 10 11 10 9 13 11 13 12 12 11 11 10 10 10 8 10 7 6 7 9 8 8 11 7 7 8 8 7 6 6 6 7 7 7
10 12 11 9 9 9 9 10 9 7 8 12 11 11 10 13 11 10 10 10 11 11 10 10 9 12 10 11 8 7 8 9 7 9 9 7 8 7 7 8 8 9 8
9 10 10 9 9 9 9 9 11 13 9 12 13 12 12 13 11 10 11 10 10 10 11 10 10 12 11 11 13 10 7 5 5 5 5 7 10 10 10 9 9 9 11
7 9 9 8 8 11 10 10 12 13 11 12 12 12 13 13 12 12 12 11 10 10 11 9 9 8 11 11 10 11 8 9 2 4 9 9 9 9 8 11 14 11 12
Wind_Direction
200 196 198 200 199 204 204 206 213 216 204 216 204 204 209 214 215 213 233 254 226 234 248 255 239 252 263 262 246 245 267 248 262 273 289 280 261 285 299 292 274 261 244
196 196 197 196 201 201 208 206 206 209 209 209 210 209 213 218 214 216 217 215 223 227 231 239 245 248 234 246 253 256 265 262 254 264 279 285 264 281 276 276 273 275 279
199 197 197 193 196 203 202 208 205 204 208 210 210 215 217 221 220 221 223 224 220 225 229 229 237 228 239 247 254 279 246 230 234 256 269 270 276 276 274 265 262 265 269
202 202 197 201 200 201 198 203 204 207 205 209 211 213 218 224 224 225 221 220 222 224 232 235 237 235 232 234 245 251 250 244 235 240 258 264 261 258 255 277 281 271 269
207 206 205 202 202 199 196 195 203 206 211 212 214 216 218 224 220 214 225 225 226 231 236 235 231 234 237 242 249 242 252 247 250 258 261 266 267 282 297 329 308 299 294
216 212 205 202 199 197 193 196 194 200 206 209 217 220 224 232 222 188 221 228 231 238 243 240 241 218 224 221 229 247 266 268 267 288 292 304 295 277 263 290 291 286 283
221 215 208 204 204 200 197 197 197 197 201 209 217 222 227 233 206 187 198 245 243 244 250 259 260 258 228 241 216 225 243 238 242 267 267 269 287 286 285 275 274 282 277
222 220 212 207 214 202 197 200 197 200 202 207 215 220 225 228 192 189 198 231 250 252 252 247 253 268 273 269 254 252 247 229 214 218 243 269 282 298 286 284 288 282 274
224 221 219 210 214 208 209 201 190 190 196 207 214 220 220 225 190 193 195 235 240 243 244 240 242 243 251 168 254 264 262 230 119 84 85 86 100 96 336 293 290 317 301
228 226 216 211 213 219 215 211 214 200 186 206 211 220 230 229 193 191 198 233 233 236 230 231 151 255 126 156 244 255 252 204 215 171 178 182 203 156 216 302 322 305 331
280 230 225 212 216 227 218 213 192 201 197 198 218 217 227 217 219 189 192 221 240 230 244 212 231 189 176 196 226 249 246 184 175 220 204 199 190 153 82 54 360 321 310
321 264 228 221 221 223 222 211 208 215 205 211 237 229 221 223 212 188 191 214 255 223 229 223 198 161 167 182 234 110 138 215 212 206 182 186 147 109 122 104 99 90 77
290 285 237 224 219 223 209 207 209 197 179 190 195 280 235 176 161 158 195 199 226 253 209 116 117 138 138 113 111 165 187 219 205 191 179 146 132 132 124 162 169 174 162
287 270 266 233 227 227 206 192 217 197 179 171 205 258 230 200 200 174 175 170 165 144 110 132 146 140 83 116 150 190 226 208 203 187 175 165 161 179 204 211 196 193 231
277 277 256 261 185 214 231 204 202 219 206 189 209 208 184 206 203 182 176 185 186 153 145 143 160 177 185 187 191 194 196 182 196 180 186 182 190 200 203 219 237 224 258
272 262 259 139 148 216 169 131 18 313 170 214 198 181 196 254 150 157 155 116 119 141 173 171 187 200 202 197 191 187 192 198 195 195 200 203 208 216 210 205 247 267 286
268 271 258 226 210 204 171 153 163 150 38 31 344 213 185 165 158 151 133 131 145 158 190 189 199 204 199 201 198 195 193 193 186 215 212 214 224 230 196 244 213 234 256
264 255 270 209 217 214 193 198 167 154 160 251 351 320 159 145 149 141 136 129 156 229 205 190 199 199 205 202 201 198 201 176 211 220 223 222 225 238 240 236 242 247 259
257 252 246 240 212 217 209 203 201 228 188 195 171 156 53 82 112 145 162 166 174 200 220 208 201 198 198 196 201 210 221 215 214 217 218 223 210 209 244 253 247 284 347
243 240 261 244 229 222 216 211 202 234 233 198 198 182 143 130 158 168 200 191 188 201 211 225 199 204 196 174 190 205 214 203 209 225 236 227 229 238 228 232 277 266 212
248 244 204 231 222 223 219 215 205 217 218 228 201 174 167 177 181 181 202 205 198 203 215 216 210 223 217 203 203 215 215 205 213 215 232 226 239 235 217 235 219 252 249
243 240 235 227 228 222 234 221 213 221 222 221 197 144 163 202 195 191 197 211 208 211 199 218 223 201 199 199 209 220 217 213 222 207 214 218 211 218 236 227 233 236 252
241 232 228 200 243 224 227 230 238 232 224 226 206 150 176 202 209 185 202 209 208 211 222 208 218 230 233 203 211 218 212 229 203 203 210 213 216 219 220 226 235 236 238
209 232 227 215 193 213 221 223 209 237 251 222 207 158 181 202 211 196 201 197 204 204 207 211 208 203 208 209 194 212 221 218 207 198 211 233 229 190 235 256 250 244 255
195 212 224 223 222 214 227 228 227 218 225 240 201 173 181 194 199 193 199 193 191 195 193 198 200 191 201 205 216 201 76 68 269 11 268 237 255 247 251 252 239 250 257
210 201 212 225 227 233 233 233 225 228 209 229 203 174 182 179 185 187 185 183 182 187 179 189 186 210 200 188 35 44 37 21 334 327 278 256 250 239 238 247 254 261 266